Location: Kershaw
(34.5481°N, 80.5823°W)
Time: 23:53:41
(UTC+00:00)

Altair - Pass Details

Date: 11 October 2022
Orbit: 1501 x 1682 km, 47.2° (Epoch: 05 December)

Event Time Altitude Azimuth Distance (km) Brightness Sun altitude
Exits shadow 07:17:55 38° 66° (ENE) 2,274 8.5 -49.6°
Drops below altitude 10° 07:23:19 10° 57° (ENE) 3,847 10.1 -48.7°
Sets 07:26:30 0° 56° (NE) 4,858 10.8 -48.1°
